User: anonymous   Login
Location: Ostrava
(49.8330°N, 18.2830°E)
Time: 05:00:49
(UTC+01:00)
Language:

NOAA 19 - Orbit

View from above orbital plane
View from above orbital plane
View from above satellite
View from above satellite

Ground track
Ground track

The orbit data is extracted from the following two-line orbital elements,

1 33591U 09005A   14351.55718506  .00000448  00000-0  27003-3 0  5016
2 33591 098.9684 296.2359 0013395 325.7395 140.7451 14.11831957301868
Epoch (UTC): 17 December 2014 13:22:20
Eccentricity: 0.0013395
inclination: 98.9684°
perigee height: 843 km
apogee height: 863 km
right ascension of ascending node: 296.2359°
argument of perigee: 325.7395°
revolutions per day: 14.11831957
mean anomaly at epoch: 140.7451°
orbit number at epoch: 30186

The dashed part of the orbit path shows where the satellite is in the earth's shadow,  

DLR